Location: Czu?�w
(50.1404°N, 18.9919°E)
Time: 03:20:52
(UTC+00:00)

FALCON 9 DEB - Pass Details

Date: 27 October 2020
Orbit: 378 x 394 km, 53.0° (Epoch: 27 November)

Event Time Altitude Azimuth Distance (km) Brightness Sun altitude
Rises 16:41:31 0° 230° (SW) 2,297 7.8 -12.2°
Reaches altitude 10° 16:43:38 10° 225° (SW) 1,438 6.5 -12.5°
Maximum altitude 16:46:45 47° 150° (SSE) 530 3.3 -13.0°
Enters shadow 16:48:12 26° 89° (E) 819 3.9 -13.3°
